Latest Coastal Weather Observations for Browse Island

IDW60701

Issued at 12:53 pm WST Friday 18 August 2017 (issued every 10 minutes, with the page automatically refreshed every 10 minutes)

About coastal observations | Map of coastal stations | Coastal observations for WA | Marine services | Other Formats
Station Details ID: 200784 Name: BROWSE ISLAND Lat: -14.11 Lon: 123.55 Height: 3.7 m
Data from the previous 72 hours. | See also: Recent months at Browse Island
Date/Time
WST
Temp
°C
Wind Pressure Rain since
9am
mm
Weather Cloud Vis
km
Sea
Height
m
Swell
Dir  Spd
kts
Gust
kts
hPa Trend Height
m
Period
s
Dir
18/12:30pm 27.0 SSW 6 - 1012.0 - - - - - - - - -
18/12:00pm 27.5 SSW 7 - 1012.6 - - - - - - - - -
18/11:30am 27.0 SSW 7 - 1012.0 - - - - - - - - -
18/11:00am 26.6 SSW 10 - 1012.9 - - - - - - - - -
18/10:30am 27.0 SSW 9 - 1013.0 - - - - - - - - -
18/10:00am 26.3 SSW 6 - 1013.6 - - - - - - - - -
18/09:30am 27.0 SSW 5 - 1013.0 - - - - - - - - -
18/09:00am 26.5 SSW 5 - 1013.6 - - - - - - - - -
18/08:30am 26.0 SW 5 - 1013.0 - - - - - - - - -
18/08:00am 26.1 S 5 - 1013.2 - - - - - - - - -
18/07:30am 26.0 S 6 - 1013.0 - - - - - - - - -
18/07:00am 25.8 S 7 - 1012.9 - - - - - - - - -
18/06:30am 26.0 S 5 - 1012.0 - - - - - - - - -
18/06:00am 25.7 S 4 - 1012.4 - - - - - - - - -
18/05:30am 26.0 S 4 - 1012.0 - - - - - - - - -
18/05:00am 25.7 S 4 - 1011.7 - - - - - - - - -
18/04:30am 26.0 S 4 - 1011.0 - - - - - - - - -
18/04:00am 25.9 S 5 - 1011.2 - - - - - - - - -
18/03:30am 26.0 SSW 6 - 1011.0 - - - - - - - - -
18/03:00am 25.7 SSW 5 - 1010.8 - - - - - - - - -
18/02:30am 26.0 SSW 5 - 1010.0 - - - - - - - - -
18/02:00am 25.9 SSW 6 - 1010.9 - - - - - - - - -
18/01:30am 26.0 SW 6 - 1011.0 - - - - - - - - -
18/01:00am 25.9 SW 7 - 1011.0 - - - - - - - - -
18/12:30am 26.0 SW 8 - 1011.0 - - - - - - - - -
18/12:00am 26.0 WSW 9 - 1011.3 - - - - - - - - -
 
Date/Time
WST
Temp
°C
Wind Pressure Rain since
9am
mm
Weather Cloud Vis
km
Sea
Height
m
Swell
Dir  Spd
kts
Gust
kts
hPa Trend Height
m
Period
s
Dir
17/11:30pm 26.0 SW 9 - 1011.0 - - - - - - - - -
17/11:00pm 26.2 WSW 7 - 1011.4 - - - - - - - - -
17/10:30pm 26.0 WSW 6 - 1011.0 - - - - - - - - -
17/10:00pm 26.2 WSW 6 - 1011.5 - - - - - - - - -
17/09:30pm 26.0 SW 5 - 1011.0 - - - - - - - - -
17/09:00pm 26.4 SW 5 - 1011.6 - - - - - - - - -
17/08:30pm 27.0 SW 4 - 1011.0 - - - - - - - - -
17/08:00pm 26.5 SSW 4 - 1011.4 - - - - - - - - -
17/07:30pm 27.0 S 4 - 1011.0 - - - - - - - - -
17/07:00pm 26.6 SSW 5 - 1010.8 - - - - - - - - -
17/06:30pm 27.0 SSW 6 - 1010.0 - - - - - - - - -
17/06:00pm 26.6 SSW 6 - 1010.4 - - - - - - - - -
17/05:30pm 27.0 SSW 7 - 1010.0 - - - - - - - - -
17/05:00pm 26.8 S 7 - 1009.9 - - - - - - - - -
17/04:30pm 27.0 S 7 - 1009.0 - - - - - - - - -
17/04:00pm 27.0 S 8 - 1009.7 - - - - - - - - -
17/03:30pm 27.0 S 8 - 1009.0 - - - - - - - - -
17/03:00pm 27.4 S 9 - 1009.5 - - - - - - - - -
17/02:30pm 27.0 S 10 - 1009.0 - - - - - - - - -
17/02:00pm 26.8 SSW 10 - 1009.7 - - - - - - - - -
17/01:30pm 27.0 S 11 - 1010.0 - - - - - - - - -
17/01:00pm 26.7 S 10 - 1010.5 - - - - - - - - -
17/12:30pm 27.0 S 10 - 1010.0 - - - - - - - - -
17/12:00pm 26.7 S 9 - 1011.2 - - - - - - - - -
17/11:30am 27.0 S 8 - 1011.0 - - - - - - - - -
17/11:00am 26.7 S 8 - 1012.2 - - - - - - - - -
17/10:30am 27.0 S 7 - 1012.0 - - - - - - - - -
17/10:00am 26.4 S 7 - 1012.8 - - - - - - - - -
17/09:30am 27.0 S 7 - 1013.0 - - - - - - - - -
17/09:00am 26.5 S 6 - 1013.0 - - - - - - - - -
17/08:30am 26.0 S 7 - 1013.0 - - - - - - - - -
17/08:00am 26.2 S 9 - 1012.8 - - - - - - - - -
17/07:30am 26.0 SSW 9 - 1012.0 - - - - - - - - -
17/07:00am 26.2 SSW 8 - 1012.5 - - - - - - - - -
17/06:30am 26.0 SSW 9 - 1012.0 - - - - - - - - -
17/06:00am 26.1 SSW 8 - 1012.0 - - - - - - - - -
17/05:30am 26.0 SSW 8 - 1011.0 - - - - - - - - -
17/05:00am 25.9 SW 8 - 1011.4 - - - - - - - - -
17/04:30am 26.0 SW 9 - 1011.0 - - - - - - - - -
17/04:00am 25.7 SW 9 - 1011.0 - - - - - - - - -
17/03:30am 26.0 WSW 10 - 1011.0 - - - - - - - - -
17/03:00am 25.7 WSW 10 - 1010.8 - - - - - - - - -
17/02:30am 26.0 WSW 9 - 1010.0 - - - - - - - - -
17/02:00am 25.4 WSW 9 - 1010.8 - - - - - - - - -
17/01:30am 26.0 WSW 9 - 1011.0 - - - - - - - - -
17/01:00am 25.6 W 9 - 1011.2 - - - - - - - - -
17/12:30am 26.0 W 8 - 1011.0 - - - - - - - - -
17/12:00am 25.6 W 8 - 1011.7 - - - - - - - - -
 
Date/Time
WST
Temp
°C
Wind Pressure Rain since
9am
mm
Weather Cloud Vis
km
Sea
Height
m
Swell
Dir  Spd
kts
Gust
kts
hPa Trend Height
m
Period
s
Dir
16/11:30pm 26.0 W 7 - 1011.0 - - - - - - - - -
16/11:00pm 25.7 W 7 - 1012.0 - - - - - - - - -
16/10:30pm 26.0 WSW 7 - 1012.0 - - - - - - - - -
16/10:00pm 25.9 WSW 6 - 1012.2 - - - - - - - - -
16/09:30pm 26.0 WSW 6 - 1012.0 - - - - - - - - -
16/09:00pm 26.0 WSW 6 - 1012.2 - - - - - - - - -
16/08:30pm 26.0 SW 5 - 1012.0 - - - - - - - - -
16/08:00pm 26.0 SW 5 - 1012.0 - - - - - - - - -
16/07:30pm 26.0 SSW 5 - 1011.0 - - - - - - - - -
16/07:00pm 26.2 SSW 5 - 1011.3 - - - - - - - - -
16/06:30pm 26.0 SW 6 - 1011.0 - - - - - - - - -
16/06:00pm 26.3 SW 6 - 1010.9 - - - - - - - - -
16/05:30pm 26.0 SSW 7 - 1010.0 - - - - - - - - -
16/05:00pm 26.5 SSW 7 - 1010.5 - - - - - - - - -
16/04:30pm 27.0 SW 6 - 1010.0 - - - - - - - - -
16/04:00pm 26.6 SSW 5 - 1010.2 - - - - - - - - -
16/03:30pm 27.0 SW 6 - 1010.0 - - - - - - - - -
16/03:00pm 26.5 SW 6 - 1010.0 - - - - - - - - -
16/02:30pm 27.0 SW 7 - 1010.0 - - - - - - - - -
16/02:00pm 26.7 SW 7 - 1010.4 - - - - - - - - -
16/01:30pm 27.0 SW 7 - 1010.0 - - - - - - - - -
16/01:00pm 27.0 WSW 7 - 1011.0 - - - - - - - - -
16/12:30pm 26.0 SW 8 - 1011.0 - - - - - - - - -
16/12:00pm 26.5 SW 8 - 1011.7 - - - - - - - - -
16/11:30am 26.0 SW 5 - 1012.0 - - - - - - - - -
16/11:00am 26.7 W 4 - 1012.5 - - - - - - - - -
16/10:30am 27.0 WSW 4 - 1012.0 - - - - - - - - -
16/10:00am 26.6 WNW 4 - 1013.0 - - - - - - - - -
16/09:30am 28.0 CALM 0 - 1013.0 - - - - - - - - -
16/09:00am 26.9 CALM 0 - 1013.3 - - - - - - - - -
16/08:30am 26.0 S 3 - 1013.0 - - - - - - - - -
16/08:00am 26.1 SSE 3 - 1013.0 - - - - - - - - -
16/07:30am 26.0 S 5 - 1012.0 - - - - - - - - -
16/07:00am 25.4 S 6 - 1012.6 - - - - - - - - -
16/06:30am 25.0 S 6 - 1012.0 - - - - - - - - -
16/06:00am 25.6 SSW 5 - 1012.3 - - - - - - - - -
16/05:30am 25.0 SSW 8 - 1012.0 - - - - - - - - -
16/05:00am 25.5 SW 8 - 1011.6 - - - - - - - - -
16/04:30am 26.0 SW 10 - 1011.0 - - - - - - - - -
16/04:00am 25.8 SW 9 - 1011.1 - - - - - - - - -
16/03:30am 26.0 WSW 10 - 1011.0 - - - - - - - - -
16/03:00am 25.7 SW 9 - 1010.9 - - - - - - - - -
16/02:30am 26.0 W 9 - 1010.0 - - - - - - - - -
16/02:00am 26.0 W 9 9 1010.8 - - - - - - - - -
16/01:30am 26.0 W 10 - 1011.0 - - - - - - - - -
16/01:00am 26.3 W 10 - 1011.2 - - - - - - - - -
16/12:30am 26.0 W 11 - 1011.0 - - - - - - - - -
16/12:00am 26.3 W 10 - 1011.5 - - - - - - - - -
 
Date/Time
WST
Temp
°C
Wind Pressure Rain since
9am
mm
Weather Cloud Vis
km
Sea
Height
m
Swell
Dir  Spd
kts
Gust
kts
hPa Trend Height
m
Period
s
Dir
15/11:30pm 26.0 W 10 - 1011.0 - - - - - - - - -
15/11:00pm 26.1 W 9 - 1012.1 - - - - - - - - -
15/10:30pm 26.0 W 7 - 1012.0 - - - - - - - - -
15/10:00pm 25.8 W 6 - 1012.6 - - - - - - - - -
15/09:30pm 26.0 WSW 5 - 1012.0 - - - - - - - - -
15/09:00pm 25.9 SW 5 6 1012.9 - - - - - - - - -
15/08:30pm 26.0 SW 5 - 1013.0 - - - - - - - - -
15/08:00pm 26.0 SW 6 - 1012.9 - - - - - - - - -
15/07:30pm 26.0 SSW 5 - 1012.0 - - - - - - - - -
15/07:00pm 26.1 SSW 5 - 1012.4 - - - - - - - - -
15/06:30pm 26.0 SSW 6 - 1012.0 - - - - - - - - -
15/06:00pm 26.1 SSW 6 - 1012.0 - - - - - - - - -
15/05:30pm 26.0 SSW 7 - 1011.0 - - - - - - - - -
15/05:00pm 26.3 SSW 6 - 1011.6 - - - - - - - - -
15/04:30pm 27.0 SSW 7 - 1011.0 - - - - - - - - -
15/04:00pm 26.2 SSW 7 - 1011.2 - - - - - - - - -
15/03:30pm 26.0 SSW 7 - 1011.0 - - - - - - - - -
15/03:00pm 26.2 SSW 9 - 1011.3 - - - - - - - - -
15/02:30pm 26.0 SSW 10 - 1011.0 - - - - - - - - -
15/02:00pm 26.3 SSW 10 - 1012.1 - - - - - - - - -
15/01:30pm 26.0 SSW 10 - 1012.0 - - - - - - - - -
15/01:00pm 26.4 SSW 9 - 1012.8 - - - - - - - - -

Other Formats:

Comma delimited format used in spreadsheet applications
http://www.bom.gov.au/fwo/IDW60701/IDW60701.94103.axf

JavaScript Object Notation format (JSON) in row-major order
http://www.bom.gov.au/fwo/IDW60701/IDW60701.94103.json